Time,TemperatureF,DewpointF,PressureIn,WindDirection,WindDirectionDegrees,WindSpeedMPH,WindSpeedGustMPH,Humidity,HourlyPrecipIn,Conditions,Clouds,dailyrainin,SoftwareType,DateUTC
2013-07-01 06:00:00,56.0,50.9,30.11,NNE,22,0.0,0.0,83,0.00,,---,0.00,VWS V14.01,2013-07-01 11:00:00,
2013-07-01 06:05:00,55.7,51.3,30.12,NNE,25,0.0,0.0,85,0.00,,---,0.00,VWS V14.01,2013-07-01 11:05:00,
2013-07-01 06:10:00,55.7,51.0,30.12,NNE,25,0.0,0.0,84,0.00,,---,0.00,VWS V14.01,2013-07-01 11:10:00,
2013-07-01 06:15:00,55.7,51.0,30.12,NNE,25,0.0,0.0,84,0.00,,---,0.00,VWS V14.01,2013-07-01 11:15:00,
2013-07-01 06:20:00,55.7,51.0,30.12,NNE,25,0.0,0.0,84,0.00,,---,0.00,VWS V14.01,2013-07-01 11:20:00,
2013-07-01 06:25:00,55.8,51.4,30.12,NNE,25,0.0,0.0,85,0.00,,---,0.00,VWS V14.01,2013-07-01 11:25:00,
2013-07-01 06:30:00,55.9,51.5,30.12,NNE,25,0.0,0.0,85,0.00,,---,0.00,VWS V14.01,2013-07-01 11:30:00,
2013-07-01 06:35:00,56.0,51.2,30.12,NNE,25,0.0,0.0,84,0.00,,---,0.00,VWS V14.01,2013-07-01 11:35:00,
2013-07-01 06:40:00,56.0,51.2,30.12,NNE,25,0.0,0.0,84,0.00,,---,0.00,VWS V14.01,2013-07-01 11:40:00,
2013-07-01 06:45:00,56.4,52.0,30.12,NNE,25,0.0,0.0,85,0.00,,---,0.00,VWS V14.01,2013-07-01 11:45:00,
2013-07-01 06:50:00,56.9,52.4,30.12,NNE,25,0.0,0.0,85,0.00,,---,0.00,VWS V14.01,2013-07-01 11:50:00,
2013-07-01 06:55:00,57.2,52.7,30.13,NNE,25,0.0,0.0,85,0.00,,---,0.00,VWS V14.01,2013-07-01 11:55:00,
2013-07-01 07:00:00,57.6,53.1,30.13,NNE,25,0.0,0.0,85,0.00,,---,0.00,VWS V14.01,2013-07-01 12:00:00,
2013-07-01 07:05:00,58.3,53.8,30.13,NNE,25,0.0,0.0,85,0.00,,---,0.00,VWS V14.01,2013-07-01 12:05:00,
2013-07-01 07:10:00,58.8,54.0,30.13,NNE,25,0.0,0.0,84,0.00,,---,0.00,VWS V14.01,2013-07-01 12:10:00,
2013-07-01 07:15:00,59.0,53.8,30.13,NNE,25,0.0,0.0,83,0.00,,---,0.00,VWS V14.01,2013-07-01 12:15:00,
2013-07-01 07:20:00,59.1,53.6,30.13,NNE,25,0.0,0.0,82,0.00,,---,0.00,VWS V14.01,2013-07-01 12:20:00,
2013-07-01 07:25:00,59.6,53.8,30.13,NNE,25,0.0,0.0,81,0.00,,---,0.00,VWS V14.01,2013-07-01 12:25:00,
2013-07-01 07:30:00,60.3,54.5,30.13,NNE,25,0.0,0.0,81,0.00,,---,0.00,VWS V14.01,2013-07-01 12:30:00,
2013-07-01 07:35:00,61.3,55.1,30.13,NNE,25,0.0,0.0,80,0.00,,---,0.00,VWS V14.01,2013-07-01 12:35:00,
2013-07-01 07:40:00,62.2,55.3,30.13,NNE,25,0.0,0.0,78,0.00,,---,0.00,VWS V14.01,2013-07-01 12:40:00,
2013-07-01 07:45:00,63.0,55.0,30.13,NNE,25,0.0,0.0,75,0.00,,---,0.00,VWS V14.01,2013-07-01 12:45:00,
2013-07-01 07:50:00,63.6,54.4,30.13,NNE,25,0.0,0.0,72,0.00,,---,0.00,VWS V14.01,2013-07-01 12:50:00,
2013-07-01 07:55:00,64.3,54.3,30.13,NNE,25,0.0,1.0,70,0.00,,---,0.00,VWS V14.01,2013-07-01 12:55:00,
2013-07-01 08:00:00,64.9,54.5,30.14,NNE,25,0.0,1.0,69,0.00,,---,0.00,VWS V14.01,2013-07-01 13:00:00,
2013-07-01 08:05:00,65.4,54.6,30.14,NNE,25,0.0,0.0,68,0.00,,---,0.00,VWS V14.01,2013-07-01 13:05:00,
2013-07-01 08:10:00,65.9,54.7,30.14,NNE,25,0.0,1.0,67,0.00,,---,0.00,VWS V14.01,2013-07-01 13:10:00,
2013-07-01 08:15:00,66.4,55.1,30.14,NNE,25,0.0,1.0,67,0.00,,---,0.00,VWS V14.01,2013-07-01 13:15:00,
2013-07-01 08:20:00,66.8,55.1,30.14,NNE,22,0.0,1.0,66,0.00,,---,0.00,VWS V14.01,2013-07-01 13:20:00,
2013-07-01 08:25:00,67.3,54.7,30.14,NNE,22,0.0,1.0,64,0.00,,---,0.00,VWS V14.01,2013-07-01 13:25:00,
2013-07-01 08:30:00,67.9,54.8,30.14,NNE,22,0.0,1.0,63,0.00,,---,0.00,VWS V14.01,2013-07-01 13:30:00,
2013-07-01 08:35:00,68.3,54.3,30.15,North,11,0.0,1.0,61,0.00,,---,0.00,VWS V14.01,2013-07-01 13:35:00,
2013-07-01 08:40:00,68.9,54.0,30.15,NNE,14,0.0,3.0,59,0.00,,---,0.00,VWS V14.01,2013-07-01 13:40:00,
2013-07-01 08:45:00,69.5,54.6,30.15,NNE,14,0.0,3.0,59,0.00,,---,0.00,VWS V14.01,2013-07-01 13:45:00,
2013-07-01 08:50:00,70.0,54.6,30.15,North,355,0.0,3.0,58,0.00,,---,0.00,VWS V14.01,2013-07-01 13:50:00,
2013-07-01 08:55:00,70.6,55.6,30.15,North,350,0.0,3.0,59,0.00,,---,0.00,VWS V14.01,2013-07-01 13:55:00,
2013-07-01 09:00:00,70.7,54.2,30.15,NNE,16,0.0,6.0,56,0.00,,---,0.00,VWS V14.01,2013-07-01 14:00:00,
2013-07-01 09:05:00,70.8,54.8,30.15,North,10,1.0,2.0,57,0.00,,---,0.00,VWS V14.01,2013-07-01 14:05:00,
2013-07-01 09:10:00,71.0,55.0,30.15,NNE,21,1.0,4.0,57,0.00,,---,0.00,VWS V14.01,2013-07-01 14:10:00,
2013-07-01 09:15:00,71.4,54.9,30.15,NNE,12,0.0,4.0,56,0.00,,---,0.00,VWS V14.01,2013-07-01 14:15:00,
2013-07-01 09:20:00,71.9,54.4,30.15,North,5,0.0,4.0,54,0.00,,---,0.00,VWS V14.01,2013-07-01 14:20:00,
2013-07-01 09:25:00,72.5,54.9,30.15,NNE,17,0.0,4.0,54,0.00,,---,0.00,VWS V14.01,2013-07-01 14:25:00,
2013-07-01 09:30:00,72.6,54.5,30.15,NNE,21,0.0,5.0,53,0.00,,---,0.00,VWS V14.01,2013-07-01 14:30:00,
2013-07-01 09:35:00,72.8,54.2,30.15,NW,326,0.0,3.0,52,0.00,,---,0.00,VWS V14.01,2013-07-01 14:35:00,
2013-07-01 09:40:00,72.9,53.7,30.15,NNE,15,0.0,5.0,51,0.00,,---,0.00,VWS V14.01,2013-07-01 14:40:00,
2013-07-01 09:45:00,73.4,55.8,30.15,NNE,30,1.0,5.0,54,0.00,,---,0.00,VWS V14.01,2013-07-01 14:45:00,
2013-07-01 09:50:00,74.0,55.3,30.14,North,5,4.0,5.0,52,0.00,,---,0.00,VWS V14.01,2013-07-01 14:50:00,
2013-07-01 09:55:00,74.4,56.7,30.14,NNE,32,0.0,6.0,54,0.00,,---,0.00,VWS V14.01,2013-07-01 14:55:00,
2013-07-01 10:00:00,74.9,56.1,30.14,NNW,345,2.0,6.0,52,0.00,,---,0.00,VWS V14.01,2013-07-01 15:00:00,
2013-07-01 10:05:00,75.1,55.8,30.14,North,360,1.0,4.0,51,0.00,,---,0.00,VWS V14.01,2013-07-01 15:05:00,
2013-07-01 10:10:00,75.3,55.4,30.14,NNE,24,1.0,4.0,50,0.00,,---,0.00,VWS V14.01,2013-07-01 15:10:00,
2013-07-01 10:15:00,75.6,54.5,30.14,NNW,347,1.0,7.0,48,0.00,,---,0.00,VWS V14.01,2013-07-01 15:15:00,
2013-07-01 10:20:00,75.6,55.1,30.14,North,11,1.0,7.0,49,0.00,,---,0.00,VWS V14.01,2013-07-01 15:20:00,
2013-07-01 10:25:00,75.9,55.4,30.14,North,360,0.0,7.0,49,0.00,,---,0.00,VWS V14.01,2013-07-01 15:25:00,
2013-07-01 10:30:00,76.3,55.2,30.14,NNE,32,0.0,7.0,48,0.00,,---,0.00,VWS V14.01,2013-07-01 15:30:00,
2013-07-01 10:35:00,76.4,55.3,30.14,North,10,0.0,3.0,48,0.00,,---,0.00,VWS V14.01,2013-07-01 15:35:00,
2013-07-01 10:40:00,76.5,54.2,30.14,NNW,327,0.0,8.0,46,0.00,,---,0.00,VWS V14.01,2013-07-01 15:40:00,
2013-07-01 10:45:00,76.6,53.7,30.14,North,9,1.0,8.0,45,0.00,,---,0.00,VWS V14.01,2013-07-01 15:45:00,
2013-07-01 10:50:00,76.7,54.4,30.14,North,9,0.0,8.0,46,0.00,,---,0.00,VWS V14.01,2013-07-01 15:50:00,
2013-07-01 10:55:00,77.2,54.2,30.14,NNE,27,0.0,8.0,45,0.00,,---,0.00,VWS V14.01,2013-07-01 15:55:00,
2013-07-01 11:00:00,77.2,53.6,30.14,NNW,338,0.0,9.0,44,0.00,,---,0.00,VWS V14.01,2013-07-01 16:00:00,
2013-07-01 11:05:00,77.5,53.3,30.14,NNE,28,5.0,6.0,43,0.00,,---,0.00,VWS V14.01,2013-07-01 16:05:00,
2013-07-01 11:10:00,77.6,54.6,30.14,North,360,1.0,6.0,45,0.00,,---,0.00,VWS V14.01,2013-07-01 16:10:00,
2013-07-01 11:15:00,77.8,54.8,30.14,NNE,29,0.0,6.0,45,0.00,,---,0.00,VWS V14.01,2013-07-01 16:15:00,
2013-07-01 11:20:00,78.1,53.8,30.14,NE,48,1.0,9.0,43,0.00,,---,0.00,VWS V14.01,2013-07-01 16:20:00,
2013-07-01 11:25:00,78.2,55.1,30.14,North,350,0.0,9.0,45,0.00,,---,0.00,VWS V14.01,2013-07-01 16:25:00,
2013-07-01 11:30:00,78.5,55.4,30.14,NNW,346,3.0,9.0,45,0.00,,---,0.00,VWS V14.01,2013-07-01 16:30:00,
2013-07-01 11:35:00,78.4,55.3,30.14,North,350,2.0,9.0,45,0.00,,---,0.00,VWS V14.01,2013-07-01 16:35:00,
2013-07-01 11:40:00,78.4,55.3,30.14,NNE,14,1.0,10.0,45,0.00,,---,0.00,VWS V14.01,2013-07-01 16:40:00,
2013-07-01 11:45:00,78.7,55.6,30.14,NW,320,0.0,10.0,45,0.00,,---,0.00,VWS V14.01,2013-07-01 16:45:00,
2013-07-01 11:50:00,78.9,55.2,30.13,North,355,4.0,10.0,44,0.00,,---,0.00,VWS V14.01,2013-07-01 16:50:00,
2013-07-01 11:55:00,78.9,55.2,30.13,NNE,29,1.0,10.0,44,0.00,,---,0.00,VWS V14.01,2013-07-01 16:55:00,
2013-07-01 12:01:00,79.1,55.3,30.13,ENE,68,1.0,10.0,44,0.00,,---,0.00,VWS V14.01,2013-07-01 17:01:00,
2013-07-01 12:06:00,79.1,54.7,30.13,NNE,13,1.0,6.0,43,0.00,,---,0.00,VWS V14.01,2013-07-01 17:06:00,
2013-07-01 12:11:00,79.2,53.5,30.13,North,355,7.0,11.0,41,0.00,,---,0.00,VWS V14.01,2013-07-01 17:11:00,
2013-07-01 12:16:00,79.4,52.3,30.13,NNE,24,0.0,11.0,39,0.00,,---,0.00,VWS V14.01,2013-07-01 17:16:00,
2013-07-01 12:21:00,79.5,53.8,30.13,NNW,344,0.0,11.0,41,0.00,,---,0.00,VWS V14.01,2013-07-01 17:21:00,
2013-07-01 12:26:00,79.5,55.1,30.12,ENE,72,6.0,11.0,43,0.00,,---,0.00,VWS V14.01,2013-07-01 17:26:00,
2013-07-01 12:31:00,78.9,53.9,30.12,North,9,0.0,11.0,42,0.00,,---,0.00,VWS V14.01,2013-07-01 17:31:00,
2013-07-01 12:36:00,79.1,53.4,30.13,NNW,346,4.0,7.0,41,0.00,,---,0.00,VWS V14.01,2013-07-01 17:36:00,
2013-07-01 12:41:00,79.0,54.6,30.12,ENE,67,1.0,10.0,43,0.00,,---,0.00,VWS V14.01,2013-07-01 17:41:00,
2013-07-01 12:46:00,79.1,54.1,30.12,ESE,118,0.0,10.0,42,0.00,,---,0.00,VWS V14.01,2013-07-01 17:46:00,
2013-07-01 12:51:00,79.2,52.8,30.12,East,82,0.0,10.0,40,0.00,,---,0.00,VWS V14.01,2013-07-01 17:51:00,
2013-07-01 12:56:00,79.8,55.3,30.12,NNE,19,3.0,10.0,43,0.00,,---,0.00,VWS V14.01,2013-07-01 17:56:00,
2013-07-01 13:01:00,80.1,55.6,30.12,NNE,33,1.0,10.0,43,0.00,,---,0.00,VWS V14.01,2013-07-01 18:01:00,
2013-07-01 13:06:00,80.2,54.4,30.12,NE,34,0.0,6.0,41,0.00,,---,0.00,VWS V14.01,2013-07-01 18:06:00,
2013-07-01 13:11:00,80.4,57.8,30.11,North,360,1.0,11.0,46,0.00,,---,0.00,VWS V14.01,2013-07-01 18:11:00,
2013-07-01 13:16:00,80.6,55.4,30.12,NW,323,2.0,11.0,42,0.00,,---,0.00,VWS V14.01,2013-07-01 18:16:00,
2013-07-01 13:21:00,80.4,55.9,30.12,NE,44,0.0,11.0,43,0.00,,---,0.00,VWS V14.01,2013-07-01 18:21:00,
2013-07-01 13:26:00,80.5,56.0,30.12,NE,36,1.0,11.0,43,0.00,,---,0.00,VWS V14.01,2013-07-01 18:26:00,
2013-07-01 13:31:00,79.5,55.7,30.12,East,94,0.0,11.0,44,0.00,,---,0.00,VWS V14.01,2013-07-01 18:31:00,
2013-07-01 13:36:00,79.3,56.1,30.12,North,5,0.0,6.0,45,0.00,,---,0.00,VWS V14.01,2013-07-01 18:36:00,
2013-07-01 13:40:00,79.3,56.8,30.11,East,99,2.0,6.0,46,0.00,,---,0.00,VWS V14.01,2013-07-01 18:40:00,
2013-07-01 13:45:00,79.8,56.0,30.11,North,360,3.0,7.0,44,0.00,,---,0.00,VWS V14.01,2013-07-01 18:45:00,
2013-07-01 13:50:00,79.8,56.6,30.11,ESE,105,0.0,7.0,45,0.00,,---,0.00,VWS V14.01,2013-07-01 18:50:00,
2013-07-01 13:56:00,80.0,56.8,30.11,ENE,76,1.0,7.0,45,0.00,,---,0.00,VWS V14.01,2013-07-01 18:56:00,
2013-07-01 14:00:00,80.0,56.2,30.11,NE,45,1.0,7.0,44,0.00,,---,0.00,VWS V14.01,2013-07-01 19:00:00,
2013-07-01 14:05:00,79.6,56.4,30.11,NNE,13,0.0,5.0,45,0.00,,---,0.00,VWS V14.01,2013-07-01 19:05:00,
2013-07-01 14:10:00,79.9,55.4,30.11,ESE,109,5.0,6.0,43,0.00,,---,0.00,VWS V14.01,2013-07-01 19:10:00,
2013-07-01 14:15:00,80.3,55.1,30.11,NNE,32,2.0,9.0,42,0.00,,---,0.00,VWS V14.01,2013-07-01 19:15:00,
2013-07-01 14:20:00,80.7,54.2,30.10,North,360,0.0,9.0,40,0.00,,---,0.00,VWS V14.01,2013-07-01 19:20:00,
2013-07-01 14:25:00,81.2,57.2,30.10,North,9,0.0,9.0,44,0.00,,---,0.00,VWS V14.01,2013-07-01 19:25:00,
2013-07-01 14:30:00,81.2,53.9,30.10,NNE,28,7.0,11.0,39,0.00,,---,0.00,VWS V14.01,2013-07-01 19:30:00,
2013-07-01 14:35:00,81.1,55.2,30.10,East,87,0.0,9.0,41,0.00,,---,0.00,VWS V14.01,2013-07-01 19:35:00,
2013-07-01 14:40:00,81.6,55.0,30.10,NE,37,5.0,9.0,40,0.00,,---,0.00,VWS V14.01,2013-07-01 19:40:00,
2013-07-01 14:46:00,81.9,55.2,30.10,North,349,3.0,10.0,40,0.00,,---,0.00,VWS V14.01,2013-07-01 19:46:00,
2013-07-01 14:51:00,82.2,54.1,30.10,NNE,17,4.0,10.0,38,0.00,,---,0.00,VWS V14.01,2013-07-01 19:51:00,
2013-07-01 14:56:00,82.1,54.7,30.09,ENE,60,2.0,10.0,39,0.00,,---,0.00,VWS V14.01,2013-07-01 19:56:00,
2013-07-01 15:01:00,82.0,53.9,30.09,East,80,2.0,10.0,38,0.00,,---,0.00,VWS V14.01,2013-07-01 20:01:00,
2013-07-01 15:06:00,82.3,58.9,30.09,ENE,64,6.0,7.0,45,0.00,,---,0.00,VWS V14.01,2013-07-01 20:06:00,
2013-07-01 15:11:00,82.6,53.7,30.09,North,10,2.0,7.0,37,0.00,,---,0.00,VWS V14.01,2013-07-01 20:11:00,
2013-07-01 15:15:00,82.5,52.9,30.09,East,83,4.0,7.0,36,0.00,,---,0.00,VWS V14.01,2013-07-01 20:15:00,
2013-07-01 15:20:00,82.4,55.0,30.09,ENE,67,3.0,9.0,39,0.00,,---,0.00,VWS V14.01,2013-07-01 20:20:00,
2013-07-01 15:25:00,82.1,53.3,30.09,East,94,1.0,9.0,37,0.00,,---,0.00,VWS V14.01,2013-07-01 20:25:00,
2013-07-01 15:31:00,82.0,52.4,30.09,East,84,0.0,9.0,36,0.00,,---,0.00,VWS V14.01,2013-07-01 20:31:00,
2013-07-01 15:36:00,81.9,55.2,30.09,North,355,1.0,10.0,40,0.00,,---,0.00,VWS V14.01,2013-07-01 20:36:00,
2013-07-01 15:41:00,81.8,54.5,30.08,NNW,327,0.0,10.0,39,0.00,,---,0.00,VWS V14.01,2013-07-01 20:41:00,
2013-07-01 15:46:00,82.1,54.7,30.08,ESE,117,0.0,10.0,39,0.00,,---,0.00,VWS V14.01,2013-07-01 20:46:00,
2013-07-01 15:51:00,82.3,53.5,30.08,NNE,19,1.0,10.0,37,0.00,,---,0.00,VWS V14.01,2013-07-01 20:51:00,
2013-07-01 15:56:00,82.1,52.5,30.08,ENE,71,2.0,10.0,36,0.00,,---,0.00,VWS V14.01,2013-07-01 20:56:00,
2013-07-01 16:01:00,81.8,54.5,30.08,NE,37,3.0,10.0,39,0.00,,---,0.00,VWS V14.01,2013-07-01 21:01:00,
2013-07-01 16:06:00,82.0,56.0,30.08,ENE,68,0.0,5.0,41,0.00,,---,0.00,VWS V14.01,2013-07-01 21:06:00,
2013-07-01 16:10:00,82.5,55.1,30.08,NNE,15,0.0,12.0,39,0.00,,---,0.00,VWS V14.01,2013-07-01 21:10:00,
2013-07-01 16:15:00,83.0,54.1,30.07,NNE,17,0.0,12.0,37,0.00,,---,0.00,VWS V14.01,2013-07-01 21:15:00,
2013-07-01 16:20:00,83.3,55.1,30.08,ENE,71,2.0,12.0,38,0.00,,---,0.00,VWS V14.01,2013-07-01 21:20:00,
2013-07-01 16:25:00,82.6,53.7,30.07,ENE,64,4.0,12.0,37,0.00,,---,0.00,VWS V14.01,2013-07-01 21:25:00,
2013-07-01 16:30:00,81.8,54.5,30.08,NNE,19,0.0,12.0,39,0.00,,---,0.00,VWS V14.01,2013-07-01 21:30:00,
2013-07-01 16:35:00,81.6,55.6,30.07,NE,40,0.0,1.0,41,0.00,,---,0.00,VWS V14.01,2013-07-01 21:35:00,
2013-07-01 16:40:00,81.9,55.2,30.07,NNE,19,0.0,4.0,40,0.00,,---,0.00,VWS V14.01,2013-07-01 21:40:00,
2013-07-01 16:46:00,82.5,56.5,30.07,ENE,69,0.0,4.0,41,0.00,,---,0.00,VWS V14.01,2013-07-01 21:46:00,
2013-07-01 16:50:00,82.6,55.9,30.07,East,80,0.0,9.0,40,0.00,,---,0.00,VWS V14.01,2013-07-01 21:50:00,
2013-07-01 16:55:00,81.9,53.8,30.07,East,101,0.0,9.0,38,0.00,,---,0.00,VWS V14.01,2013-07-01 21:55:00,
2013-07-01 17:00:00,81.5,56.2,30.07,ENE,63,0.0,9.0,42,0.00,,---,0.00,VWS V14.01,2013-07-01 22:00:00,
2013-07-01 17:05:00,81.3,56.0,30.07,NNE,29,3.0,4.0,42,0.00,,---,0.00,VWS V14.01,2013-07-01 22:05:00,
2013-07-01 17:10:00,81.4,56.1,30.07,East,79,1.0,5.0,42,0.00,,---,0.00,VWS V14.01,2013-07-01 22:10:00,
2013-07-01 17:16:00,82.1,56.1,30.07,East,86,0.0,5.0,41,0.00,,---,0.00,VWS V14.01,2013-07-01 22:16:00,
2013-07-01 17:21:00,82.8,57.4,30.07,ENE,78,2.0,5.0,42,0.00,,---,0.00,VWS V14.01,2013-07-01 22:21:00,
2013-07-01 17:26:00,82.4,55.0,30.07,NW,307,0.0,7.0,39,0.00,,---,0.00,VWS V14.01,2013-07-01 22:26:00,
2013-07-01 17:30:00,81.9,55.9,30.07,NW,321,0.0,7.0,41,0.00,,---,0.00,VWS V14.01,2013-07-01 22:30:00,
2013-07-01 17:35:00,81.2,55.3,30.07,NNE,21,1.0,3.0,41,0.00,,---,0.00,VWS V14.01,2013-07-01 22:35:00,
2013-07-01 17:40:00,80.8,54.9,30.06,NNE,22,0.0,4.0,41,0.00,,---,0.00,VWS V14.01,2013-07-01 22:40:00,
2013-07-01 17:45:00,81.0,55.1,30.06,NNE,19,0.0,4.0,41,0.00,,---,0.00,VWS V14.01,2013-07-01 22:45:00,
2013-07-01 17:50:00,81.5,55.5,30.06,NE,52,0.0,5.0,41,0.00,,---,0.00,VWS V14.01,2013-07-01 22:50:00,
2013-07-01 17:55:00,82.0,56.0,30.06,East,86,0.0,5.0,41,0.00,,---,0.00,VWS V14.01,2013-07-01 22:55:00,
2013-07-01 18:00:00,82.3,54.2,30.06,East,95,0.0,6.0,38,0.00,,---,0.00,VWS V14.01,2013-07-01 23:00:00,
2013-07-01 18:05:00,81.9,54.5,30.06,NE,55,5.0,8.0,39,0.00,,---,0.00,VWS V14.01,2013-07-01 23:05:00,
2013-07-01 18:10:00,81.2,53.2,30.06,East,86,2.0,8.0,38,0.00,,---,0.00,VWS V14.01,2013-07-01 23:10:00,
2013-07-01 18:15:00,81.1,53.8,30.06,East,95,1.0,8.0,39,0.00,,---,0.00,VWS V14.01,2013-07-01 23:15:00,
2013-07-01 18:20:00,81.1,53.8,30.06,East,95,2.0,8.0,39,0.00,,---,0.00,VWS V14.01,2013-07-01 23:20:00,
2013-07-01 18:25:00,80.9,52.9,30.06,East,92,1.0,8.0,38,0.00,,---,0.00,VWS V14.01,2013-07-01 23:25:00,
2013-07-01 18:30:00,81.1,52.4,30.06,NE,39,0.0,9.0,37,0.00,,---,0.00,VWS V14.01,2013-07-01 23:30:00,
2013-07-01 18:35:00,81.3,54.0,30.06,SE,127,0.0,3.0,39,0.00,,---,0.00,VWS V14.01,2013-07-01 23:35:00,
2013-07-01 18:40:00,81.2,53.9,30.06,ENE,60,0.0,3.0,39,0.00,,---,0.00,VWS V14.01,2013-07-01 23:40:00,
2013-07-01 18:45:00,81.1,53.1,30.06,NNE,30,0.0,3.0,38,0.00,,---,0.00,VWS V14.01,2013-07-01 23:45:00,
2013-07-01 18:50:00,80.9,53.7,30.06,NNE,30,0.0,3.0,39,0.00,,---,0.00,VWS V14.01,2013-07-01 23:50:00,
2013-07-01 18:55:00,80.5,53.3,30.06,NNE,18,0.0,3.0,39,0.00,,---,0.00,VWS V14.01,2013-07-01 23:55:00,
2013-07-01 19:00:00,80.2,53.7,30.06,NNE,13,0.0,3.0,40,0.00,,---,0.00,VWS V14.01,2013-07-02 00:00:00,
2013-07-01 19:05:00,79.9,54.1,30.06,NNE,13,0.0,0.0,41,0.00,,---,0.00,VWS V14.01,2013-07-02 00:05:00,
2013-07-01 19:10:00,79.7,54.6,30.06,North,11,0.0,1.0,42,0.00,,---,0.00,VWS V14.01,2013-07-02 00:10:00,
2013-07-01 19:15:00,79.6,54.5,30.06,NNE,12,0.0,3.0,42,0.00,,---,0.00,VWS V14.01,2013-07-02 00:15:00,
2013-07-01 19:20:00,79.5,54.4,30.06,NE,53,3.0,3.0,42,0.00,,---,0.00,VWS V14.01,2013-07-02 00:20:00,
2013-07-01 19:25:00,79.5,55.1,30.06,NE,55,0.0,3.0,43,0.00,,---,0.00,VWS V14.01,2013-07-02 00:25:00,
2013-07-01 19:30:00,79.5,54.4,30.06,NE,49,0.0,3.0,42,0.00,,---,0.00,VWS V14.01,2013-07-02 00:30:00,
2013-07-01 19:35:00,79.4,53.7,30.06,NNE,16,0.0,4.0,41,0.00,,---,0.00,VWS V14.01,2013-07-02 00:35:00,
2013-07-01 19:40:00,79.4,53.7,30.06,NNE,18,0.0,4.0,41,0.00,,---,0.00,VWS V14.01,2013-07-02 00:40:00,
2013-07-01 19:45:00,79.4,53.0,30.06,NNE,19,0.0,4.0,40,0.00,,---,0.00,VWS V14.01,2013-07-02 00:45:00,
2013-07-01 19:50:00,79.3,53.6,30.06,NNE,19,0.0,4.0,41,0.00,,---,0.00,VWS V14.01,2013-07-02 00:50:00,
2013-07-01 19:55:00,79.2,54.2,30.06,NNE,19,0.0,4.0,42,0.00,,---,0.00,VWS V14.01,2013-07-02 00:55:00,
2013-07-01 20:00:00,79.1,54.1,30.06,NNE,19,0.0,4.0,42,0.00,,---,0.00,VWS V14.01,2013-07-02 01:00:00,
2013-07-01 20:05:00,79.2,54.2,30.06,NNE,19,0.0,0.0,42,0.00,,---,0.00,VWS V14.01,2013-07-02 01:05:00,
2013-07-01 20:10:00,79.3,54.2,30.06,NNE,19,0.0,0.0,42,0.00,,---,0.00,VWS V14.01,2013-07-02 01:10:00,
2013-07-01 20:15:00,79.2,54.2,30.06,NNE,19,0.0,0.0,42,0.00,,---,0.00,VWS V14.01,2013-07-02 01:15:00,
2013-07-01 20:20:00,78.8,54.4,30.06,NNE,19,0.0,1.0,43,0.00,,---,0.00,VWS V14.01,2013-07-02 01:20:00,
2013-07-01 20:25:00,78.5,54.2,30.06,NNE,19,0.0,1.0,43,0.00,,---,0.00,VWS V14.01,2013-07-02 01:25:00,
2013-07-01 20:30:00,78.2,55.1,30.06,NNE,19,0.0,1.0,45,0.00,,---,0.00,VWS V14.01,2013-07-02 01:30:00,
2013-07-01 20:35:00,77.7,55.3,30.06,NNE,19,0.0,0.0,46,0.00,,---,0.00,VWS V14.01,2013-07-02 01:35:00,
2013-07-01 20:40:00,77.1,55.3,30.06,NNE,19,0.0,0.0,47,0.00,,---,0.00,VWS V14.01,2013-07-02 01:40:00,
2013-07-01 20:45:00,76.4,55.3,30.06,NNE,19,0.0,0.0,48,0.00,,---,0.00,VWS V14.01,2013-07-02 01:45:00,
2013-07-01 20:50:00,75.8,55.3,30.06,NNE,19,0.0,0.0,49,0.00,,---,0.00,VWS V14.01,2013-07-02 01:50:00,
2013-07-01 20:55:00,75.3,55.4,30.06,NNE,19,0.0,0.0,50,0.00,,---,0.00,VWS V14.01,2013-07-02 01:55:00,
2013-07-01 21:00:00,74.9,55.6,30.06,NNE,19,0.0,0.0,51,0.00,,---,0.00,VWS V14.01,2013-07-02 02:00:00,
2013-07-01 21:05:00,74.4,55.1,30.06,NNE,19,0.0,0.0,51,0.00,,---,0.00,VWS V14.01,2013-07-02 02:05:00,
2013-07-01 21:10:00,74.1,54.8,30.06,NNE,19,0.0,0.0,51,0.00,,---,0.00,VWS V14.01,2013-07-02 02:10:00,
2013-07-01 21:15:00,73.8,54.6,30.06,NNE,19,0.0,0.0,51,0.00,,---,0.00,VWS V14.01,2013-07-02 02:15:00,
2013-07-01 21:20:00,73.5,54.8,30.06,NNE,19,0.0,0.0,52,0.00,,---,0.00,VWS V14.01,2013-07-02 02:20:00,
2013-07-01 21:25:00,73.1,55.0,30.06,NNE,19,0.0,0.0,53,0.00,,---,0.00,VWS V14.01,2013-07-02 02:25:00,
2013-07-01 21:30:00,72.8,54.2,30.06,NNE,19,0.0,0.0,52,0.00,,---,0.00,VWS V14.01,2013-07-02 02:30:00,
2013-07-01 21:35:00,72.5,54.4,30.06,NNE,19,0.0,0.0,53,0.00,,---,0.00,VWS V14.01,2013-07-02 02:35:00,
2013-07-01 21:40:00,72.2,54.1,30.06,NNE,19,0.0,0.0,53,0.00,,---,0.00,VWS V14.01,2013-07-02 02:40:00,
2013-07-01 21:45:00,71.9,54.4,30.06,NNE,19,0.0,0.0,54,0.00,,---,0.00,VWS V14.01,2013-07-02 02:45:00,
2013-07-01 21:50:00,71.5,54.0,30.07,NNE,19,0.0,0.0,54,0.00,,---,0.00,VWS V14.01,2013-07-02 02:50:00,
2013-07-01 21:55:00,71.3,54.3,30.07,NNE,19,0.0,0.0,55,0.00,,---,0.00,VWS V14.01,2013-07-02 02:55:00,
2013-07-01 22:00:00,71.1,54.1,30.07,NNE,19,0.0,0.0,55,0.00,,---,0.00,VWS V14.01,2013-07-02 03:00:00,
2013-07-01 22:05:00,70.8,53.8,30.07,NNE,19,0.0,0.0,55,0.00,,---,0.00,VWS V14.01,2013-07-02 03:05:00,
2013-07-01 22:10:00,70.6,54.6,30.07,NNE,19,0.0,0.0,57,0.00,,---,0.00,VWS V14.01,2013-07-02 03:10:00,
2013-07-01 22:15:00,70.3,54.4,30.08,NNE,19,0.0,0.0,57,0.00,,---,0.00,VWS V14.01,2013-07-02 03:15:00,
2013-07-01 22:20:00,70.0,54.6,30.08,NNE,19,0.0,0.0,58,0.00,,---,0.00,VWS V14.01,2013-07-02 03:20:00,
2013-07-01 22:25:00,69.7,54.3,30.08,NNE,19,0.0,0.0,58,0.00,,---,0.00,VWS V14.01,2013-07-02 03:25:00,
2013-07-01 22:30:00,69.4,54.5,30.08,NNE,19,0.0,0.0,59,0.00,,---,0.00,VWS V14.01,2013-07-02 03:30:00,
2013-07-01 22:35:00,69.2,54.3,30.08,NNE,19,0.0,0.0,59,0.00,,---,0.00,VWS V14.01,2013-07-02 03:35:00,
2013-07-01 22:40:00,68.9,54.5,30.08,NNE,19,0.0,0.0,60,0.00,,---,0.00,VWS V14.01,2013-07-02 03:40:00,
2013-07-01 22:45:00,68.7,54.7,30.08,NNE,19,0.0,0.0,61,0.00,,---,0.00,VWS V14.01,2013-07-02 03:45:00,
2013-07-01 22:50:00,68.6,54.6,30.08,NNE,19,0.0,0.0,61,0.00,,---,0.00,VWS V14.01,2013-07-02 03:50:00,
2013-07-01 22:55:00,68.5,54.5,30.08,NNE,19,0.0,0.0,61,0.00,,---,0.00,VWS V14.01,2013-07-02 03:55:00,
2013-07-01 23:00:00,68.3,54.8,30.08,NNE,19,0.0,0.0,62,0.00,,---,0.00,VWS V14.01,2013-07-02 04:00:00,
2013-07-01 23:01:00,68.3,54.8,30.08,NNE,19,0.0,0.0,62,0.00,,---,0.00,VWS V14.01,2013-07-02 04:01:00,
2013-07-01 23:06:00,68.1,54.6,30.08,NNE,19,0.0,0.0,62,0.00,,---,0.00,VWS V14.01,2013-07-02 04:06:00,
2013-07-01 23:11:00,67.9,54.4,30.08,NNE,19,0.0,0.0,62,0.00,,---,0.00,VWS V14.01,2013-07-02 04:11:00,
2013-07-01 23:16:00,67.6,54.6,30.08,NNE,19,0.0,0.0,63,0.00,,---,0.00,VWS V14.01,2013-07-02 04:16:00,
2013-07-01 23:21:00,67.4,54.4,30.08,NNE,19,0.0,0.0,63,0.00,,---,0.00,VWS V14.01,2013-07-02 04:21:00,
2013-07-01 23:26:00,67.1,54.1,30.08,NNE,19,0.0,0.0,63,0.00,,---,0.00,VWS V14.01,2013-07-02 04:26:00,
2013-07-01 23:31:00,66.9,53.9,30.08,NNE,19,0.0,0.0,63,0.00,,---,0.00,VWS V14.01,2013-07-02 04:31:00,
2013-07-01 23:36:00,66.6,54.1,30.08,NNE,19,0.0,0.0,64,0.00,,---,0.00,VWS V14.01,2013-07-02 04:36:00,
2013-07-01 23:41:00,66.4,54.3,30.08,NNE,19,0.0,0.0,65,0.00,,---,0.00,VWS V14.01,2013-07-02 04:41:00,
2013-07-01 23:46:00,66.2,54.1,30.08,NNE,19,0.0,0.0,65,0.00,,---,0.00,VWS V14.01,2013-07-02 04:46:00,
2013-07-01 23:51:00,66.0,54.3,30.08,NNE,19,0.0,0.0,66,0.00,,---,0.00,VWS V14.01,2013-07-02 04:51:00,
2013-07-01 23:56:00,65.8,54.1,30.08,NNE,19,0.0,0.0,66,0.00,,---,0.00,VWS V14.01,2013-07-02 04:56:00,